• In Uzbekistan
  • List of Countries
  • For 7 days
  • Water Temperature
  • Satellite Maps
  • Weather Map
  • Weather Widgets
  • user-avatar
    Login

    Hourly Weather Ghanzi

    Today, 18 November, Saturday

    Time Temperature Precipitation Wind Pressure Humidity
    00:00 +18°C° 0 mm 4 mps 715 mmHg 29%
    01:00 +18°C° 0 mm 4 mps 715 mmHg 31%
    02:00 +17°C° 0 mm 4 mps 715 mmHg 33%
    03:00 +17°C° 0 mm 4 mps 714 mmHg 35%
    04:00 +15°C° 0 mm 4 mps 714 mmHg 37%
    05:00 +15°C° 0 mm 4 mps 715 mmHg 37%
    06:00 +15°C° 0 mm 4 mps 715 mmHg 37%
    07:00 +17°C° 0 mm 4 mps 715 mmHg 37%
    08:00 +19°C° 0 mm 4 mps 716 mmHg 32%
    09:00 +22°C° 0 mm 5 mps 716 mmHg 26%
    10:00 +25°C° 0 mm 5 mps 716 mmHg 21%
    11:00 +27°C° 0 mm 5 mps 716 mmHg 18%
    12:00 +28°C° 0 mm 4 mps 716 mmHg 16%
    13:00 +30°C° 0 mm 4 mps 715 mmHg 14%
    14:00 +29°C° 0 mm 4 mps 715 mmHg 14%
    15:00 +29°C° 0 mm 4 mps 715 mmHg 14%
    16:00 +29°C° 0 mm 4 mps 714 mmHg 14%
    17:00 +27°C° 0 mm 4 mps 715 mmHg 17%
    18:00 +25°C° 0 mm 5 mps 715 mmHg 19%
    19:00 +22°C° 0 mm 5 mps 715 mmHg 22%
    20:00 +21°C° 0 mm 5 mps 715 mmHg 24%
    21:00 +20°C° 0 mm 5 mps 716 mmHg 27%
    22:00 +19°C° 0 mm 5 mps 716 mmHg 29%
    23:00 +19°C° 0 mm 5 mps 716 mmHg 31%

    Tomorrow, 19 November, Sunday

    Time Temperature Precipitation Wind Pressure Humidity
    00:00 +17°C° 0 mm 5 mps 716 mmHg 32%
    01:00 +16°C° 0 mm 5 mps 716 mmHg 34%
    02:00 +16°C° 0 mm 5 mps 716 mmHg 35%
    03:00 +15°C° 0 mm 5 mps 715 mmHg 36%
    04:00 +15°C° 0 mm 5 mps 715 mmHg 36%
    05:00 +15°C° 0 mm 5 mps 716 mmHg 36%
    06:00 +15°C° 0 mm 5 mps 716 mmHg 36%
    07:00 +15°C° 0 mm 5 mps 716 mmHg 36%
    08:00 +19°C° 0 mm 5 mps 717 mmHg 32%
    09:00 +21°C° 0 mm 5 mps 717 mmHg 29%
    10:00 +23°C° 0 mm 5 mps 718 mmHg 26%
    11:00 +26°C° 0 mm 5 mps 717 mmHg 23%
    12:00 +27°C° 0 mm 5 mps 717 mmHg 20%
    13:00 +29°C° 0 mm 4 mps 716 mmHg 18%
    14:00 +28°C° 0 mm 4 mps 716 mmHg 18%
    15:00 +28°C° 0 mm 5 mps 716 mmHg 18%
    16:00 +28°C° 0 mm 5 mps 715 mmHg 18%
    17:00 +26°C° 0 mm 5 mps 716 mmHg 20%
    18:00 +23°C° 0 mm 5 mps 716 mmHg 23%
    19:00 +22°C° 0 mm 5 mps 716 mmHg 25%
    20:00 +21°C° 0 mm 5 mps 716 mmHg 26%
    21:00 +20°C° 0 mm 5 mps 717 mmHg 28%
    22:00 +19°C° 0 mm 5 mps 717 mmHg 29%
    23:00 +19°C° 0 mm 5 mps 717 mmHg 30%

    Day after tomorrow, 20 November, Monday

    Time Temperature Precipitation Wind Pressure Humidity
    00:00 +17°C° 0 mm 5 mps 717 mmHg 31%
    01:00 +17°C° 0 mm 4 mps 717 mmHg 31%
    02:00 +17°C° 0 mm 4 mps 717 mmHg 31%
    03:00 +15°C° 0 mm 4 mps 717 mmHg 30%
    04:00 +15°C° 0 mm 4 mps 716 mmHg 30%
    05:00 +15°C° 0 mm 4 mps 717 mmHg 29%
    06:00 +15°C° 0 mm 5 mps 718 mmHg 27%
    07:00 +15°C° 0 mm 5 mps 718 mmHg 26%
    08:00 +17°C° 0 mm 5 mps 719 mmHg 23%
    09:00 +21°C° 0 mm 5 mps 719 mmHg 20%
    10:00 +23°C° 0 mm 5 mps 720 mmHg 17%
    11:00 +25°C° 0 mm 5 mps 719 mmHg 15%
    12:00 +27°C° 0 mm 5 mps 718 mmHg 14%
    13:00 +28°C° 0 mm 5 mps 718 mmHg 13%
    14:00 +27°C° 0 mm 5 mps 717 mmHg 12%
    15:00 +27°C° 0 mm 6 mps 717 mmHg 12%
    16:00 +26°C° 0 mm 6 mps 717 mmHg 12%
    17:00 +25°C° 0 mm 5 mps 718 mmHg 12%
    18:00 +22°C° 0 mm 5 mps 718 mmHg 13%
    19:00 +20°C° 0 mm 5 mps 718 mmHg 14%
    20:00 +19°C° 0 mm 5 mps 719 mmHg 15%
    21:00 +17°C° 0 mm 5 mps 719 mmHg 15%
    22:00 +16°C° 0 mm 5 mps 719 mmHg 16%
    23:00 +16°C° 0 mm 5 mps 719 mmHg 18%

    21 November, Tuesday

    Time Temperature Precipitation Wind Pressure Humidity
    00:00 +15°C° 0 mm 5 mps 719 mmHg 19%
    01:00 +14°C° 0 mm 5 mps 719 mmHg 21%
    02:00 +14°C° 0 mm 5 mps 718 mmHg 23%
    03:00 +13°C° 0 mm 5 mps 718 mmHg 24%
    04:00 +13°C° 0 mm 5 mps 718 mmHg 26%
    05:00 +13°C° 0 mm 5 mps 719 mmHg 27%
    06:00 +13°C° 0 mm 5 mps 719 mmHg 28%
    07:00 +13°C° 0 mm 5 mps 720 mmHg 29%
    08:00 +15°C° 0 mm 5 mps 720 mmHg 27%
    09:00 +17°C° 0 mm 5 mps 720 mmHg 24%
    10:00 +20°C° 0 mm 6 mps 720 mmHg 22%
    11:00 +21°C° 0 mm 6 mps 720 mmHg 20%
    12:00 +22°C° 0 mm 5 mps 719 mmHg 18%
    13:00 +23°C° 0 mm 5 mps 718 mmHg 16%
    14:00 +23°C° 0 mm 5 mps 718 mmHg 17%
    15:00 +22°C° 0 mm 6 mps 718 mmHg 17%
    16:00 +22°C° 0 mm 6 mps 717 mmHg 18%
    17:00 +21°C° 0 mm 5 mps 718 mmHg 19%
    18:00 +20°C° 0 mm 4 mps 718 mmHg 21%
    19:00 +18°C° 0 mm 4 mps 718 mmHg 23%
    20:00 +18°C° 0 mm 4 mps 718 mmHg 25%
    21:00 +17°C° 0 mm 4 mps 718 mmHg 26%
    22:00 +15°C° 0 mm 4 mps 718 mmHg 28%
    23:00 +15°C° 0 mm 4 mps 718 mmHg 32%

    22 November, Wednesday

    Time Temperature Precipitation Wind Pressure Humidity
    00:00 +14°C° 0 mm 4 mps 718 mmHg 36%
    01:00 +14°C° 0 mm 4 mps 718 mmHg 40%
    02:00 +14°C° 0 mm 4 mps 718 mmHg 45%
    03:00 +13°C° 0 mm 4 mps 717 mmHg 49%
    04:00 +13°C° 0 mm 4 mps 717 mmHg 53%
    05:00 +13°C° 0 mm 4 mps 718 mmHg 53%
    06:00 +13°C° 0 mm 4 mps 718 mmHg 53%
    07:00 +13°C° 0 mm 4 mps 719 mmHg 53%
    08:00 +15°C° 0 mm 5 mps 719 mmHg 45%
    09:00 +17°C° 0 mm 5 mps 719 mmHg 38%
    10:00 +21°C° 0 mm 5 mps 720 mmHg 31%
    11:00 +22°C° 0 mm 5 mps 719 mmHg 28%
    12:00 +23°C° 0 mm 4 mps 718 mmHg 25%
    13:00 +25°C° 0 mm 4 mps 717 mmHg 22%
    14:00 +23°C° 0 mm 4 mps 717 mmHg 22%
    15:00 +23°C° 0 mm 5 mps 717 mmHg 22%
    16:00 +23°C° 0 mm 5 mps 717 mmHg 22%
    17:00 +21°C° 0 mm 5 mps 717 mmHg 25%
    18:00 +20°C° 0 mm 4 mps 718 mmHg 28%
    19:00 +18°C° 0 mm 4 mps 718 mmHg 32%
    20:00 +18°C° 0 mm 4 mps 718 mmHg 33%
    21:00 +17°C° 0 mm 4 mps 718 mmHg 35%
    22:00 +15°C° 0 mm 4 mps 718 mmHg 37%
    23:00 +15°C° 0 mm 4 mps 718 mmHg 38%

    23 November, Thursday

    Time Temperature Precipitation Wind Pressure Humidity
    00:00 +14°C° 0 mm 4 mps 718 mmHg 40%
    01:00 +14°C° 0 mm 4 mps 717 mmHg 41%
    02:00 +13°C° 0 mm 4 mps 717 mmHg 43%
    03:00 +13°C° 0 mm 4 mps 717 mmHg 44%
    04:00 +12°C° 0 mm 4 mps 717 mmHg 46%
    05:00 +13°C° 0 mm 4 mps 718 mmHg 46%
    06:00 +13°C° 0 mm 4 mps 718 mmHg 46%
    07:00 +13°C° 0 mm 4 mps 719 mmHg 46%
    08:00 +15°C° 0 mm 4 mps 719 mmHg 40%
    09:00 +18°C° 0 mm 4 mps 719 mmHg 35%
    10:00 +20°C° 0 mm 5 mps 720 mmHg 30%
    11:00 +21°C° 0 mm 5 mps 719 mmHg 27%
    12:00 +22°C° 0 mm 5 mps 718 mmHg 24%
    13:00 +23°C° 0 mm 5 mps 718 mmHg 22%
    14:00 +23°C° 0 mm 5 mps 718 mmHg 22%
    15:00 +23°C° 0 mm 5 mps 718 mmHg 22%
    16:00 +23°C° 0 mm 5 mps 717 mmHg 22%
    17:00 +21°C° 0 mm 5 mps 718 mmHg 24%
    18:00 +19°C° 0 mm 5 mps 718 mmHg 27%
    19:00 +17°C° 0 mm 5 mps 718 mmHg 30%
    20:00 +16°C° 0 mm 5 mps 718 mmHg 32%
    21:00 +15°C° 0 mm 5 mps 718 mmHg 34%
    22:00 +15°C° 0 mm 5 mps 719 mmHg 36%
    23:00 +14°C° 0 mm 4 mps 718 mmHg 38%
    Show more